Monticello, AR

2:34 AM CST on December 11, 2017 (GMT -0600)
Monticello Municipal-Ellis

Weather History for KLLQ - December, 2013

Change the Weather History Date:

Friday, December 27, 2013

  Actual Average Record
Temperature  
Mean Temperature 42 °F -  
Max Temperature 55 °F 51 °F 78 °F (2005)
Min Temperature 28 °F 32 °F 12 °F (1983)
Degree Days  
Heating Degree Days 24    
Moisture  
Dew Point 30 °F    
Average Humidity 69    
Maximum Humidity 92    
Minimum Humidity 34    
Precipitation  
Precipitation 0.00 in - - ()
Sea Level Pressure  
Sea Level Pressure 30.42 in    
Wind  
Wind Speed 1 mph (ENE)    
Max Wind Speed 6 mph    
Max Gust Speed -    
Visibility 10 miles    
Events      
Averages and records for this station are not official NWS values.
T = Trace of Precipitation, MM = Missing Value Source: NWS Daily Summary

Daily Weather History Graph

Daily Weather History Graph

Search for Another Location

Airport or City:

Trip Planner

Search our weather history database for the weather conditions in past years. The results will help you decide how hot, cold, wet, or windy it might be!

Date:

Astronomy

Dec. 27, 2013 Rise Set
Actual Time 7:10 AM CST 5:06 PM CST
Civil Twilight 6:42 AM CST 5:33 PM CST
Nautical Twilight 6:11 AM CST 6:05 PM CST
Astronomical Twilight 5:41 AM CST 6:35 PM CST
Moon 1:51 AM CST (12/27) 1:08 PM CST (12/27)
Length of Visible Light 10h 51m
Length of Day
9h 56m
Waning Crescent, 28% of the Moon is Illuminated
Dec 27
Waning Crescent
Jan 1
New
Jan 7
First Quarter
Jan 15
Full
Jan 23
Last Quarter

Hourly Weather History & Observations

Time (CST) Temp. Windchill Dew Point Humidity Pressure Visibility Wind Dir Wind Speed Gust Speed Precip Events Conditions
12:53 AM 30.0 °F - 27.0 °F 88% 30.40 in 10.0 mi Calm Calm - N/A   Clear
1:53 AM 30.9 °F - 28.0 °F 89% 30.41 in 8.0 mi Calm Calm - N/A   Clear
2:53 AM 30.0 °F - 27.0 °F 88% 30.42 in 10.0 mi Calm Calm - N/A   Clear
3:53 AM 28.9 °F - 26.1 °F 89% 30.42 in 7.0 mi Calm Calm - N/A   Clear
4:53 AM 30.0 °F - 28.0 °F 92% 30.43 in 10.0 mi Calm Calm - N/A   Clear
5:53 AM 30.9 °F - 28.0 °F 89% 30.44 in 10.0 mi Calm Calm - N/A   Clear
6:53 AM 30.0 °F - 27.0 °F 88% 30.45 in 8.0 mi Calm Calm - N/A   Clear
7:53 AM 30.0 °F - 27.0 °F 88% 30.47 in 10.0 mi Calm Calm - N/A   Clear
8:53 AM 39.0 °F - 32.0 °F 76% 30.48 in 10.0 mi Calm Calm - N/A   Clear
9:53 AM 44.1 °F 42.5 °F 30.9 °F 60% 30.48 in 10.0 mi East 3.5 mph - N/A   Clear
10:53 AM 50.0 °F - 30.9 °F 48% 30.48 in 10.0 mi NE 5.8 mph - N/A   Clear
11:53 AM 52.0 °F - 30.9 °F 45% 30.45 in 10.0 mi ESE 3.5 mph - N/A   Clear
12:53 PM 54.0 °F - 28.0 °F 37% 30.41 in 10.0 mi NE 4.6 mph - N/A   Clear
1:53 PM 55.9 °F - 28.0 °F 34% 30.40 in 10.0 mi Variable 3.5 mph - 0.00 in   Clear
2:53 PM 55.0 °F - 27.0 °F 34% 30.38 in 10.0 mi East 5.8 mph - N/A   Clear
3:53 PM 53.1 °F - 28.9 °F 40% 30.40 in 10.0 mi NE 4.6 mph - 0.00 in   Clear
4:53 PM 50.0 °F - 32.0 °F 50% 30.39 in 10.0 mi Calm Calm - N/A   Clear
5:53 PM 46.9 °F - 33.1 °F 59% 30.38 in 10.0 mi Calm Calm - N/A   Clear
6:53 PM 44.1 °F - 34.0 °F 68% 30.38 in 10.0 mi Calm Calm - N/A   Clear
7:53 PM 42.1 °F - 33.1 °F 70% 30.38 in 10.0 mi Calm Calm - N/A   Clear
8:53 PM 37.0 °F - 32.0 °F 82% 30.39 in 10.0 mi Calm Calm - N/A   Clear
9:53 PM 36.0 °F - 32.0 °F 86% 30.38 in 10.0 mi Calm Calm - N/A   Clear
10:53 PM 39.0 °F - 32.0 °F 76% 30.39 in 10.0 mi Calm Calm - N/A   Clear
11:53 PM 36.0 °F - 32.0 °F 86% 30.37 in 7.0 mi Calm Calm - N/A   Clear